Location: Madrid
(40.4000°N, 3.6830°W)
Time: 13:06:41
(UTC+01:00)

ISS - Pass Details

Date: 04 December 2019
Orbit: 411 x 421 km, 51.6° (Epoch: 11 December)

Event Time Altitude Azimuth Distance (km) Brightness Sun altitude
Rises 18:22:53 0° 306° (NW) 2,357 0.5 -6.7°
Reaches altitude 10° 18:25:59 10° 338° (NNW) 1,496 -0.9 -7.3°
Maximum altitude 18:27:30 13° 5° (N) 1,355 -1.4 -7.5°
Drops below altitude 10° 18:29:02 10° 32° (NNE) 1,499 -1.4 -7.8°
Enters shadow 18:29:39 - 41° (NE) 1,628 -1.3 -7.9°
